YAOGAN-30 T (45462 NORAD) Tracking and Keplerian Element Data

This shows tracking and keplerian element data for the satellite.

Feedback or suggestion? Click here.




ElementValue
Catalog45462
NameYAOGAN-30 T
Epoch Orbit147
Epoch Day94.1825982
Epoch Year2020
RAAN153.4552
Inclination34.9978
Eccentricity0.0008498
Argument of Perigee349.5127
Mean Anonmoly10.5408
Mean Motion14.90508585
Decay Rate2.65E-06
L11 45462U 20021C 20094.18259820 .00000265 00000-0 29348-4 0 9999
L22 45462 34.9978 153.4552 0008498 349.5127 10.5408 14.90508585 1473

Live tracking and technical data element details for YAOGAN-30 T (NORAD 45462). YAOGAN-30 T can be tracked NOW for your location showing map with azimuth and elevation plus other details from your city location.

Track the satellite on the map from your city or location and see movement details for azimuth, elevation, latitude, longitude, range, height, and movement on the map or in text.







IsCatalogInMostPopularTable: catalog: 45462, numindb: 3
Update: records affected: 1



GetName: 45462 YAOGAN-30 T

Hit Count: updated at: Tue, 07 Apr 2020 17:48:19 GMT